USA 176 (DSP 22)

Last updated on Sept. 24, 2020, 5:43 a.m. UTC

1 28158U 04004A   20267.34081853 -.00000234  00000-0  00000+0 0  9990
2 28158   9.2854  38.6898 0001223 101.9538  72.0892  1.00273077 10625
UTC
Height (km)
Latitude
Longitude
Inclination
Orbital Period
UTC large
Height (km)
Speed (km/s)
/
Latitude / Longitude
Inclination (degrees)
Orbital Period (minutes)
Azimuth
Elevation
Range (km)
Doppler Factor
iOS Compass Heading
iOS Angle

Next 30 passes for location: Hong Kong

Rise time Rise Azimuth (degrees) Set time Set Azimuth (degrees) Duration Max altitude (degrees)

No matching passes for this satellites